Lapse_Rate
7.5 7.4 7.3 7.3 7.1 7.0 6.9 6.7 6.0 6.7 7.0 6.7 6.4 6.7 5.9 5.2 5.3 5.5 6.3 6.8 6.6 6.3 6.3 6.2 6.1 5.3 5.4 5.9 6.0 6.2 6.1 6.5 6.7 6.5 6.8 6.9 7.5 7.7 7.1 7.1 4.9 5.9 6.6 5.7
7.3 7.3 7.2 7.1 7.0 7.0 6.9 6.4 6.2 6.5 6.9 6.8 6.6 6.9 6.7 5.7 5.9 6.3 6.0 6.8 6.3 6.3 6.4 6.3 6.5 6.0 6.3 6.3 6.4 5.9 6.1 6.5 6.8 6.6 6.8 6.7 6.3 6.3 6.8 6.7 6.7 6.1 5.7 5.4
7.3 7.2 7.1 7.0 7.0 6.9 6.7 6.6 6.4 6.3 6.4 6.5 6.7 6.4 6.9 5.4 6.2 6.6 6.1 6.6 6.5 6.4 6.6 6.6 6.7 6.0 6.2 6.2 6.1 6.2 6.5 6.5 6.5 6.0 5.8 6.3 6.3 6.3 6.4 6.5 6.4 6.2 5.7 5.8
7.4 7.2 7.0 6.9 6.8 7.0 7.0 6.5 6.1 6.1 6.3 6.4 6.4 6.3 6.0 6.1 5.5 6.2 5.6 5.4 6.0 6.2 6.5 6.3 6.7 6.2 6.3 6.1 5.4 6.4 6.0 5.5 5.7 5.8 6.7 7.2 7.0 7.0 6.8 6.4 5.9 6.0 5.8 5.9
7.2 7.1 6.9 6.8 6.7 7.0 7.1 6.7 6.2 6.1 6.2 6.2 6.2 6.5 6.5 5.9 5.7 6.2 6.2 5.4 6.4 5.9 6.1 6.7 6.7 6.5 6.4 6.0 6.2 6.1 5.8 5.4 5.6 5.5 5.6 6.3 6.4 6.3 6.3 6.5 6.2 5.9 6.0 5.9
6.8 6.9 6.8 6.7 6.7 6.9 6.8 6.6 6.4 6.4 6.1 6.1 6.0 6.0 6.5 6.5 6.1 5.6 6.5 6.7 6.1 5.9 6.3 6.3 6.4 7.0 7.1 6.7 6.5 6.3 6.0 5.9 5.7 5.1 5.2 5.7 5.4 5.5 5.7 6.0 6.1 6.2 5.8 5.5
6.6 6.6 6.6 6.4 6.6 6.7 6.7 6.6 6.7 6.6 6.1 5.8 6.0 6.3 6.2 6.4 6.4 6.3 7.6 7.3 6.6 6.2 6.2 6.3 6.1 6.2 6.5 6.4 5.9 6.0 6.0 5.9 5.8 5.3 5.3 5.2 4.7 5.2 5.7 5.8 6.0 6.0 5.7 5.7
6.4 6.4 6.6 6.4 6.7 6.8 6.8 6.7 6.5 6.1 5.8 5.7 6.0 6.4 6.2 6.0 6.0 5.6 5.7 7.0 6.8 6.7 6.5 6.4 6.7 6.4 6.4 6.0 5.9 5.7 5.9 5.9 5.5 5.2 4.7 5.5 5.5 5.1 5.4 5.5 6.3 6.2 6.0 6.1
6.2 6.3 6.1 6.6 6.6 6.7 6.6 6.5 6.4 5.9 5.5 5.3 5.9 6.7 7.3 5.9 5.7 5.9 5.8 6.1 6.2 6.5 6.7 6.9 6.5 6.2 6.4 6.1 6.1 5.9 5.9 5.6 5.5 4.6 4.6 4.7 5.3 5.6 5.7 6.1 5.5 5.5 5.8 6.2
6.0 6.0 6.3 6.5 6.4 6.4 6.3 6.2 6.3 6.2 5.8 5.2 6.3 6.3 7.5 7.4 5.6 5.5 5.8 6.0 6.3 6.4 7.0 6.7 6.6 6.4 6.3 6.1 6.0 5.4 4.9 4.9 5.4 5.1 5.0 5.4 5.2 5.6 5.8 5.5 5.2 6.8 6.7 6.2
6.0 6.0 6.4 6.4 6.2 6.2 6.1 6.2 6.1 6.1 6.0 5.7 6.4 6.9 7.4 7.4 6.3 5.7 5.4 5.8 6.2 6.7 7.0 6.6 6.3 5.8 5.6 5.8 6.1 6.2 5.8 5.0 4.8 4.7 4.7 4.9 5.4 5.0 5.5 6.2 6.7 6.5 6.7 6.5
6.1 6.3 6.4 6.3 6.1 6.2 6.3 6.6 6.6 6.5 6.4 6.3 6.5 6.6 7.4 7.4 7.6 7.4 6.4 6.8 7.0 7.0 6.7 6.7 6.4 5.8 5.6 6.0 5.7 5.7 5.9 6.5 6.1 6.1 6.1 6.0 5.7 5.9 6.5 6.3 6.2 6.2 6.0 6.0
6.0 6.2 6.4 6.0 5.9 6.1 6.5 6.4 6.3 6.7 6.5 6.4 6.6 6.4 7.4 7.4 7.4 7.3 6.9 7.1 6.6 6.8 6.8 6.7 6.6 6.4 6.3 6.3 6.1 6.1 6.0 6.1 6.2 6.4 6.3 6.1 5.5 5.4 5.6 5.8 5.5 5.4 5.4 5.4
6.1 6.1 6.3 6.2 5.9 6.1 6.0 6.1 6.2 6.3 6.5 6.9 7.2 7.0 7.2 7.0 7.4 7.0 6.8 6.6 6.8 6.7 6.9 6.6 6.8 6.9 6.7 6.6 6.7 6.3 6.1 6.1 5.9 5.9 5.7 5.5 5.2 4.9 5.1 5.0 4.6 5.0 5.2 5.1
6.1 6.2 6.2 6.2 6.2 6.2 6.3 6.2 6.1 6.4 6.6 7.0 7.1 7.3 7.0 6.7 7.0 7.1 7.0 6.6 6.7 6.8 6.6 6.7 6.9 7.0 7.3 7.0 6.3 6.4 6.8 6.7 6.6 6.2 6.0 5.8 5.7 5.3 4.9 5.0 5.3 5.3 5.5 5.5
6.1 6.1 6.0 6.3 6.4 6.0 6.3 6.2 6.6 6.9 6.8 6.9 6.8 6.8 7.1 6.8 7.0 6.9 7.1 6.8 6.6 6.4 6.8 6.7 6.6 7.1 6.8 6.6 5.8 6.4 6.6 6.4 5.9 5.9 5.5 5.2 5.3 4.7 4.9 5.3 5.6 5.6 5.6 5.6
6.1 6.1 6.2 6.2 6.2 6.4 6.5 6.1 6.1 6.3 6.6 6.5 6.1 6.1 6.4 6.4 6.6 6.7 7.0 6.9 7.0 6.7 6.8 6.8 6.7 6.5 6.2 5.9 5.8 6.7 6.7 5.8 5.4 5.4 5.5 4.6 4.6 5.1 5.6 5.8 6.0 5.9 5.8 5.7
6.3 6.3 6.2 6.3 6.2 6.2 6.2 6.2 6.3 6.4 6.5 6.4 6.1 5.8 6.0 6.1 6.2 6.2 6.1 6.1 6.2 6.2 6.1 6.1 6.1 5.9 5.6 5.7 5.9 6.0 5.7 5.2 5.3 5.1 5.3 5.8 5.7 5.9 6.0 5.9 6.0 6.0 6.0 5.7
7.0 6.8 6.5 6.5 6.3 6.7 6.5 6.3 6.4 6.7 6.5 6.0 6.1 6.1 6.1 6.2 6.1 5.9 5.9 5.9 6.1 6.0 5.8 5.9 5.9 5.6 5.5 5.5 5.7 5.5 5.4 5.5 5.3 5.3 5.4 5.9 6.1 6.0 6.0 6.2 6.5 6.3 6.0 6.0
7.8 7.8 7.5 6.8 6.8 6.6 6.4 6.3 6.5 6.8 6.4 6.3 6.2 6.0 6.2 6.2 6.2 6.0 6.1 6.0 5.9 5.9 5.9 5.8 5.8 5.4 5.6 5.5 5.6 5.7 5.7 5.8 5.9 6.1 6.2 6.1 6.1 6.2 6.5 6.6 6.4 6.2 6.3 6.3
8.9 8.7 8.1 7.5 7.1 7.1 6.8 6.6 6.4 6.1 6.2 6.2 6.1 6.5 6.4 6.2 6.2 6.0 5.8 5.5 5.5 5.6 5.9 5.9 5.7 5.5 5.7 5.7 5.6 5.8 6.1 6.1 6.1 6.1 6.2 6.2 6.5 6.6 6.5 6.5 6.5 6.4 6.4 6.7
8.7 8.5 8.4 8.2 7.5 7.0 6.8 6.3 6.3 6.2 6.1 6.1 6.3 6.4 6.5 6.5 6.3 6.0 5.9 5.8 5.9 5.9 5.8 5.8 5.7 5.8 6.0 6.2 6.2 6.2 6.1 6.1 6.2 6.3 6.4 6.6 6.6 6.7 6.7 6.8 6.9 7.1 7.2 7.2
8.6 8.5 8.3 8.2 7.9 7.6 6.9 6.4 6.2 6.5 6.3 6.3 6.3 6.4 6.4 6.2 6.3 6.4 6.4 6.3 6.3 6.1 6.1 6.3 6.4 6.6 6.6 6.5 6.4 6.3 6.3 6.3 6.4 6.6 6.7 6.9 7.0 7.0 7.0 7.2 7.5 7.6 7.4 7.2
8.5 8.3 8.2 8.0 7.9 7.7 7.5 7.3 7.1 6.9 6.7 6.6 6.5 6.7 6.8 6.8 6.8 6.8 6.7 6.5 6.4 6.4 6.5 6.9 7.0 7.0 7.0 7.0 6.8 6.7 6.6 6.6 6.6 6.7 6.8 6.9 7.1 7.4 7.6 7.6 7.6 7.5 7.3 7.1
8.3 8.2 8.0 7.9 7.9 7.8 7.7 7.5 7.4 7.4 7.3 7.2 7.1 7.1 7.0 7.1 7.2 7.1 6.9 6.9 6.9 6.9 7.2 7.5 7.6 7.6 7.5 7.3 7.2 7.1 7.1 7.0 7.0 7.0 7.1 7.5 7.8 7.7 7.7 7.6 7.4 7.3 7.2 7.2
8.2 8.3 8.2 8.1 8.0 7.9 8.0 8.0 7.8 7.8 7.8 7.7 7.9 7.9 7.8 7.9 7.8 7.7 7.6 7.6 7.7 7.8 8.0 7.9 8.0 8.1 8.0 8.0 7.9 7.8 7.7 7.7 7.7 7.6 7.6 7.6 7.5 7.6 7.5 7.5 7.5 7.5 7.5 7.4
8.0 8.3 8.4 8.3 8.2 8.1 8.0 8.0 8.1 8.0 7.9 7.9 8.0 8.1 8.1 8.1 8.1 8.0 8.1 8.4 8.4 8.4 8.3 8.2 8.2 8.3 8.2 8.0 7.8 7.8 7.9 7.8 7.8 7.8 7.8 7.8 7.7 7.7 7.7 7.6 7.5 7.6 7.9 7.7
Wind_Speed
22 21 22 21 20 19 13 3 7 2 8 6 3 10 6 8 13 11 14 7 8 17 22 24 20 26 28 21 24 34 27 5 5 20 5 10 27 28 21 9 6 3 2 16
22 22 22 22 19 19 3 5 3 3 4 6 8 5 12 8 3 6 5 5 22 5 17 15 23 14 18 9 29 30 22 7 3 4 4 2 10 19 17 3 4 18 9 9
21 21 19 20 21 21 7 3 3 4 6 8 6 6 9 15 12 20 16 14 7 6 13 8 11 10 4 3 21 23 21 12 27 24 23 9 8 11 19 16 11 9 20 7
20 19 18 19 18 17 7 4 4 6 5 13 16 11 3 20 12 12 7 17 25 15 6 19 10 1 0 2 3 10 19 26 24 25 2 3 16 18 19 23 28 20 23 15
19 19 18 18 17 19 7 3 3 4 3 5 16 19 21 17 21 8 13 16 15 20 14 14 10 16 6 11 2 5 2 8 24 19 6 3 5 12 24 28 30 28 12 14
18 19 18 18 18 16 4 3 4 2 7 13 9 17 25 29 18 14 23 18 14 21 20 5 1 10 8 3 8 7 8 7 5 21 5 5 7 25 19 22 24 28 22 13
18 18 18 18 18 17 6 4 3 5 12 12 22 22 24 27 23 23 15 20 18 22 9 7 9 9 6 6 2 2 5 10 3 2 9 9 10 10 20 21 14 15 6 19
13 14 14 16 17 21 12 5 7 4 11 16 19 24 24 21 22 26 24 12 6 10 9 4 4 2 2 1 1 7 6 4 4 5 6 5 5 6 11 17 21 12 12 15
10 12 15 18 22 27 14 11 10 6 6 18 13 22 21 14 17 19 18 3 10 9 3 4 7 6 8 6 3 6 8 4 3 3 5 9 0 6 9 8 15 13 12 16
12 15 15 18 24 26 15 10 21 9 10 6 15 11 17 18 15 15 12 7 5 14 6 5 4 5 6 10 14 8 5 4 11 4 3 6 5 6 10 12 4 19 21 16
11 15 16 20 25 26 15 10 17 16 9 8 14 17 11 10 14 14 7 4 2 1 7 7 3 2 4 4 7 10 11 10 5 3 2 12 8 13 15 4 2 7 9 11
12 13 16 22 25 26 13 5 13 17 6 4 10 22 11 18 23 14 7 4 5 6 3 2 3 2 3 5 6 1 4 5 7 8 7 1 4 2 2 4 6 4 8 12
19 20 19 20 20 27 9 2 7 7 2 2 3 11 2 3 5 9 8 2 4 2 2 3 3 4 3 5 4 4 2 3 3 4 3 1 5 4 4 8 7 7 11 13
22 24 22 21 17 18 17 3 3 3 2 2 3 1 6 2 8 3 2 6 3 5 2 2 2 3 2 2 2 4 4 8 8 3 2 8 3 5 7 7 9 10 8 7
24 25 20 19 23 10 7 5 7 4 2 3 1 1 9 3 7 9 5 6 5 3 3 2 3 3 4 3 2 3 5 6 9 5 10 4 8 6 11 14 13 12 14 7
23 21 21 16 20 11 2 4 4 9 4 3 2 1 8 7 8 8 9 4 4 3 3 2 0 2 3 3 3 4 9 5 4 4 17 6 12 9 7 13 11 9 11 9
23 16 18 12 12 6 4 1 3 9 4 3 3 2 4 5 5 2 4 4 3 2 2 1 1 1 2 2 3 8 14 10 10 17 17 11 8 7 9 12 9 10 8 6
23 16 10 11 5 4 4 3 3 4 3 3 2 1 2 6 3 2 1 2 1 3 2 2 2 2 0 1 4 11 11 13 13 15 13 13 13 11 9 12 12 11 9 8
20 17 7 2 4 3 2 20 17 2 3 2 2 2 2 5 3 2 3 3 3 2 2 2 2 2 1 0 8 12 17 10 11 15 17 15 15 13 11 12 10 13 8 7
17 7 4 4 2 16 8 4 4 4 4 4 3 3 3 3 3 3 2 2 2 2 2 1 2 2 3 5 6 6 13 15 17 18 9 12 11 11 9 7 7 10 8 6
4 4 1 4 13 3 4 4 4 3 3 3 3 5 3 6 4 2 2 1 1 2 1 2 2 1 2 4 8 7 7 8 7 9 8 7 13 12 11 9 8 8 7 6
5 4 4 3 4 3 6 3 3 4 3 2 2 2 2 1 1 3 3 2 1 2 1 3 1 2 2 5 6 7 7 9 10 10 11 10 10 9 10 9 7 5 7 6
2 3 4 4 4 9 5 5 3 3 3 2 2 2 1 2 3 2 2 4 1 0 3 1 2 4 5 6 7 9 8 9 9 10 8 10 9 8 10 9 6 7 7 4
3 4 7 3 4 3 2 2 3 3 2 2 2 2 2 2 3 1 3 1 1 2 2 2 3 7 8 7 7 10 9 8 9 9 9 9 8 9 8 8 8 7 5 4
3 3 2 2 1 2 2 2 2 3 2 2 2 2 2 2 3 2 2 3 1 2 3 2 2 10 10 10 8 9 9 6 8 7 8 9 9 8 7 5 6 6 5 5
2 3 3 1 3 4 3 3 2 3 2 1 2 2 3 3 2 1 1 2 3 3 3 2 7 9 9 9 9 8 8 8 8 7 8 8 7 7 6 5 4 3 6 4
2 2 2 3 2 4 3 1 2 3 2 1 2 2 1 1 2 1 2 3 3 2 2 4 6 10 9 8 9 9 8 9 8 8 8 7 7 7 7 8 4 5 4 3
Wind_Direction
274 270 268 259 250 242 234 216 231 230 138 193 205 230 209 226 255 247 252 240 161 184 185 199 200 217 203 198 195 200 203 149 174 205 208 223 208 207 199 200 245 209 187 256
270 266 262 255 249 230 148 227 205 233 167 220 213 267 222 237 243 268 257 263 213 180 183 198 212 214 217 206 194 198 194 199 111 11 304 325 199 211 211 141 84 215 194 256
271 266 261 253 244 227 182 179 221 194 197 235 201 199 214 219 236 256 247 287 264 121 191 181 201 211 190 116 205 199 188 203 208 215 218 142 192 196 207 199 219 212 221 160
275 268 260 250 246 212 185 195 217 189 198 226 233 245 235 218 210 207 226 232 256 214 174 193 194 293 136 33 300 201 191 215 219 235 151 163 214 208 204 207 218 206 227 205
272 263 256 248 235 216 217 216 186 191 220 152 205 225 240 251 234 222 221 240 231 247 213 199 167 181 187 206 198 163 153 214 223 234 150 184 237 229 211 213 218 228 218 191
268 262 254 242 234 216 222 196 205 246 212 209 191 210 223 231 229 223 228 219 232 230 239 244 252 194 92 95 175 180 151 186 159 228 169 108 262 228 218 220 224 216 223 204
273 266 257 244 237 213 236 196 172 210 238 210 218 220 215 220 227 234 227 223 213 236 104 81 51 45 71 108 83 120 147 182 148 130 126 212 245 183 212 220 225 217 180 169
275 270 265 259 248 251 247 196 209 206 241 223 224 217 218 218 223 236 238 231 226 149 140 121 170 178 107 325 9 145 110 176 142 172 202 323 193 209 182 188 225 197 171 138
292 283 276 266 260 256 250 230 202 216 226 226 217 218 208 206 214 235 247 241 164 168 187 150 174 183 183 185 97 32 137 198 214 153 171 216 70 188 135 89 251 165 164 156
310 303 292 282 280 278 254 252 200 200 232 205 194 209 212 205 198 214 221 181 194 198 203 162 175 167 153 164 160 154 149 179 205 167 212 275 228 149 138 164 253 180 178 165
307 307 300 307 303 302 279 247 196 200 217 218 218 206 194 188 202 203 173 132 181 169 199 198 155 141 177 136 151 159 165 161 175 138 139 253 171 156 176 187 69 134 150 151
332 318 313 304 307 309 286 220 195 194 195 237 216 215 206 205 198 195 173 209 164 157 139 152 129 155 160 152 187 161 188 184 170 188 200 96 240 358 114 142 138 136 119 132
334 334 333 330 345 352 7 297 177 154 161 137 184 179 112 121 177 178 175 273 168 204 165 156 139 145 164 165 215 94 322 132 109 113 235 158 127 100 111 135 117 117 123 128
338 338 349 350 357 353 21 14 25 104 99 98 29 3 81 320 123 108 88 133 114 123 105 90 109 124 188 174 182 140 182 139 137 35 179 91 163 183 144 96 102 96 94 117
334 335 343 353 349 355 328 357 42 32 224 127 64 338 351 152 140 127 97 119 132 113 94 111 167 159 166 155 135 163 182 164 177 195 178 119 174 141 138 123 120 118 115 101
333 330 331 0 336 358 73 21 351 344 17 88 70 307 351 71 167 146 136 113 47 70 110 114 161 335 72 119 207 193 177 160 138 156 169 162 130 125 119 117 118 114 114 124
334 330 329 356 334 13 50 64 239 313 342 66 90 61 4 348 40 35 60 60 92 92 94 80 118 84 84 180 206 181 171 158 132 127 121 100 121 135 117 115 103 97 84 87
333 329 319 326 343 53 20 295 270 341 87 61 82 62 59 2 37 79 45 75 57 42 95 72 56 62 251 3 321 141 155 126 139 138 136 131 118 106 100 115 118 105 103 105
330 323 322 27 36 9 292 298 312 27 73 83 53 28 56 346 30 59 44 35 52 3 55 63 136 297 28 114 125 127 134 135 125 107 110 118 122 124 125 120 115 115 113 103
344 20 29 348 279 311 320 3 23 36 17 35 34 352 55 18 13 49 62 30 46 47 22 343 55 29 340 12 89 102 124 125 124 111 109 119 125 131 130 127 124 125 132 132
12 10 311 266 313 19 25 25 45 358 34 18 3 15 51 1 47 72 27 100 354 85 336 89 97 316 351 26 72 69 86 93 62 94 102 123 141 142 133 124 122 127 130 127
262 280 288 324 17 23 60 4 2 35 32 14 10 5 70 286 36 78 351 86 30 80 336 66 90 271 129 98 83 72 77 89 81 90 107 110 113 118 119 121 120 115 112 104
23 18 3 37 326 35 37 6 8 21 357 344 38 28 4 8 32 70 61 65 44 133 44 162 209 143 120 110 101 80 71 81 87 83 81 95 100 104 118 114 104 101 105 110
57 17 4 77 358 46 15 343 295 292 293 54 26 47 58 332 50 358 73 338 72 59 64 236 178 162 140 126 120 117 114 109 109 111 110 110 113 104 99 112 117 119 124 129
53 58 31 31 251 252 255 258 324 321 302 358 30 47 61 11 66 30 94 38 21 198 227 233 168 152 146 142 137 130 127 123 118 114 110 105 102 106 102 109 119 117 119 118
91 92 92 345 54 316 352 346 344 352 332 356 48 66 50 2 109 89 198 160 203 247 216 188 142 141 139 138 141 136 137 132 125 113 117 119 120 128 127 102 101 119 163 154
158 256 139 143 146 187 215 179 295 316 45 58 68 61 38 81 37 292 185 204 230 207 128 133 146 147 148 142 139 142 148 126 134 134 140 144 137 132 147 161 164 157 172 156